Hourly Weather Klachi

Today, 30 July, Friday

Time Temperature Precipitation Wind Pressure Humidity
00:00 +16°C° 0 mm 2 mps 741 mmHg 95%
01:00 +15°C° 0 mm 2 mps 741 mmHg 96%
02:00 +15°C° 0 mm 2 mps 740 mmHg 96%
03:00 +15°C° 0 mm 2 mps 740 mmHg 96%
04:00 +16°C° 0 mm 2 mps 741 mmHg 93%
05:00 +17°C° 0 mm 2 mps 741 mmHg 90%
06:00 +18°C° 0 mm 3 mps 741 mmHg 87%
07:00 +19°C° 0 mm 3 mps 741 mmHg 82%
08:00 +21°C° 0 mm 4 mps 741 mmHg 76%
09:00 +22°C° 0 mm 4 mps 741 mmHg 70%
10:00 +25°C° 0 mm 5 mps 741 mmHg 65%
11:00 +26°C° 0 mm 5 mps 741 mmHg 59%
12:00 +27°C° 0 mm 5 mps 742 mmHg 53%
13:00 +27°C° 0 mm 4 mps 742 mmHg 54%
14:00 +27°C° 0 mm 4 mps 741 mmHg 55%
15:00 +27°C° 0 mm 3 mps 741 mmHg 56%
16:00 +26°C° 0 mm 3 mps 741 mmHg 58%
17:00 +26°C° 0 mm 3 mps 741 mmHg 61%
18:00 +25°C° 0 mm 3 mps 741 mmHg 63%
19:00 +24°C° 0 mm 3 mps 741 mmHg 66%
20:00 +22°C° 0 mm 3 mps 742 mmHg 68%
21:00 +21°C° 0 mm 2 mps 742 mmHg 71%
22:00 +21°C° 0 mm 2 mps 742 mmHg 70%
23:00 +21°C° 0 mm 2 mps 741 mmHg 70%

Tomorrow, 31 July, Saturday

Time Temperature Precipitation Wind Pressure Humidity
00:00 +23°C° 0 mm 2 mps 741 mmHg 70%
01:00 +21°C° 0.5 mm 2 mps 741 mmHg 77%
02:00 +21°C° 0.5 mm 1 mps 741 mmHg 85%
03:00 +20°C° 0.5 mm 1 mps 741 mmHg 92%
04:00 +20°C° 0.2 mm 1 mps 741 mmHg 92%
05:00 +19°C° 0.2 mm 2 mps 741 mmHg 92%
06:00 +19°C° 0.2 mm 2 mps 741 mmHg 92%
07:00 +21°C° 0 mm 3 mps 741 mmHg 84%
08:00 +23°C° 0 mm 4 mps 740 mmHg 77%
09:00 +25°C° 0 mm 5 mps 740 mmHg 70%
10:00 +26°C° 0.1 mm 5 mps 740 mmHg 68%
11:00 +27°C° 0.1 mm 6 mps 740 mmHg 65%
12:00 +27°C° 0.1 mm 6 mps 740 mmHg 63%
13:00 +27°C° 0.4 mm 7 mps 740 mmHg 64%
14:00 +27°C° 0.4 mm 7 mps 740 mmHg 64%
15:00 +27°C° 0.4 mm 7 mps 741 mmHg 65%
16:00 +27°C° 0.1 mm 6 mps 741 mmHg 63%
17:00 +26°C° 0.1 mm 5 mps 741 mmHg 60%
18:00 +26°C° 0.1 mm 4 mps 741 mmHg 58%
19:00 +25°C° 0 mm 3 mps 741 mmHg 57%
20:00 +24°C° 0 mm 3 mps 742 mmHg 56%
21:00 +22°C° 0 mm 3 mps 742 mmHg 55%
22:00 +22°C° 0 mm 3 mps 742 mmHg 55%
23:00 +21°C° 0 mm 3 mps 742 mmHg 56%

Day after tomorrow, 1 August, Sunday

Time Temperature Precipitation Wind Pressure Humidity
00:00 +21°C° 0 mm 3 mps 743 mmHg 57%
01:00 +20°C° 0 mm 3 mps 743 mmHg 60%
02:00 +19°C° 0 mm 3 mps 743 mmHg 62%
03:00 +18°C° 0 mm 3 mps 743 mmHg 65%
04:00 +18°C° 0 mm 3 mps 744 mmHg 65%
05:00 +19°C° 0 mm 3 mps 744 mmHg 65%
06:00 +19°C° 0 mm 3 mps 744 mmHg 64%
07:00 +21°C° 0 mm 4 mps 745 mmHg 59%
08:00 +23°C° 0 mm 5 mps 745 mmHg 54%
09:00 +24°C° 0 mm 6 mps 745 mmHg 49%
10:00 +26°C° 0 mm 6 mps 745 mmHg 47%
11:00 +27°C° 0 mm 6 mps 745 mmHg 44%
12:00 +28°C° 0 mm 6 mps 745 mmHg 41%
13:00 +28°C° 0 mm 6 mps 745 mmHg 40%
14:00 +28°C° 0 mm 6 mps 745 mmHg 38%
15:00 +29°C° 0 mm 6 mps 745 mmHg 36%
16:00 +28°C° 0 mm 5 mps 746 mmHg 41%
17:00 +27°C° 0 mm 4 mps 746 mmHg 45%
18:00 +26°C° 0 mm 3 mps 746 mmHg 49%
19:00 +25°C° 0 mm 3 mps 746 mmHg 53%
20:00 +23°C° 0 mm 2 mps 746 mmHg 57%
21:00 +21°C° 0 mm 2 mps 746 mmHg 60%
22:00 +21°C° 0 mm 2 mps 746 mmHg 59%
23:00 +22°C° 0 mm 1 mps 746 mmHg 59%

2 August, Monday

Time Temperature Precipitation Wind Pressure Humidity
00:00 +23°C° 0 mm 1 mps 746 mmHg 58%
01:00 +23°C° 0 mm 1 mps 746 mmHg 59%
02:00 +21°C° 0 mm 2 mps 746 mmHg 60%
03:00 +21°C° 0 mm 2 mps 747 mmHg 62%
04:00 +21°C° 0.1 mm 2 mps 747 mmHg 65%
05:00 +21°C° 0.1 mm 2 mps 747 mmHg 68%
06:00 +21°C° 0.1 mm 2 mps 747 mmHg 72%
07:00 +22°C° 0 mm 3 mps 747 mmHg 67%
08:00 +23°C° 0 mm 4 mps 747 mmHg 62%
09:00 +25°C° 0 mm 5 mps 747 mmHg 57%
10:00 +27°C° 0 mm 6 mps 746 mmHg 52%
11:00 +29°C° 0 mm 6 mps 746 mmHg 46%
12:00 +32°C° 0 mm 7 mps 746 mmHg 41%
13:00 +32°C° 0 mm 7 mps 746 mmHg 42%
14:00 +32°C° 0 mm 7 mps 746 mmHg 42%
15:00 +32°C° 0 mm 7 mps 746 mmHg 42%
16:00 +29°C° 0.2 mm 5 mps 746 mmHg 50%
17:00 +28°C° 0.2 mm 3 mps 745 mmHg 57%
18:00 +26°C° 0.2 mm 1 mps 745 mmHg 65%
19:00 +25°C° 0.4 mm 2 mps 745 mmHg 70%
20:00 +23°C° 0.4 mm 2 mps 745 mmHg 76%
21:00 +21°C° 0.4 mm 3 mps 745 mmHg 81%
22:00 +21°C° 0.1 mm 3 mps 745 mmHg 82%
23:00 +20°C° 0.1 mm 3 mps 745 mmHg 82%

3 August, Tuesday

Time Temperature Precipitation Wind Pressure Humidity
00:00 +20°C° 0.1 mm 3 mps 745 mmHg 83%
01:00 +20°C° 0.1 mm 3 mps 745 mmHg 83%
02:00 +20°C° 0.1 mm 3 mps 745 mmHg 83%
03:00 +20°C° 0.1 mm 3 mps 745 mmHg 84%
04:00 +21°C° 0 mm 3 mps 744 mmHg 81%
05:00 +21°C° 0 mm 3 mps 744 mmHg 79%
06:00 +22°C° 0 mm 3 mps 744 mmHg 77%
07:00 +25°C° 0 mm 4 mps 744 mmHg 68%
08:00 +27°C° 0 mm 4 mps 744 mmHg 59%
09:00 +29°C° 0 mm 5 mps 744 mmHg 50%
10:00 +32°C° 0 mm 5 mps 744 mmHg 45%
11:00 +33°C° 0 mm 5 mps 744 mmHg 41%
12:00 +34°C° 0 mm 5 mps 744 mmHg 36%
13:00 +35°C° 0 mm 4 mps 744 mmHg 35%
14:00 +35°C° 0 mm 4 mps 743 mmHg 34%
15:00 +35°C° 0 mm 4 mps 743 mmHg 33%
16:00 +34°C° 0 mm 5 mps 743 mmHg 38%
17:00 +32°C° 0 mm 5 mps 743 mmHg 43%
18:00 +30°C° 0 mm 6 mps 743 mmHg 48%
19:00 +27°C° 0.2 mm 5 mps 744 mmHg 60%
20:00 +24°C° 0.2 mm 3 mps 744 mmHg 71%
21:00 +20°C° 0.2 mm 2 mps 745 mmHg 83%
22:00 +20°C° 0 mm 2 mps 745 mmHg 86%
23:00 +19°C° 0 mm 2 mps 745 mmHg 89%

4 August, Wednesday

Time Temperature Precipitation Wind Pressure Humidity
00:00 +20°C° 0 mm 1 mps 746 mmHg 91%
01:00 +19°C° 0 mm 2 mps 746 mmHg 92%
02:00 +18°C° 0 mm 2 mps 746 mmHg 93%
03:00 +18°C° 0 mm 2 mps 747 mmHg 94%
04:00 +18°C° 0 mm 2 mps 747 mmHg 93%
05:00 +19°C° 0 mm 2 mps 747 mmHg 91%
06:00 +19°C° 0 mm 2 mps 747 mmHg 90%
07:00 +19°C° 0.3 mm 3 mps 748 mmHg 89%
08:00 +19°C° 0.3 mm 3 mps 748 mmHg 88%
09:00 +20°C° 0.3 mm 3 mps 748 mmHg 87%
10:00 +20°C° 0.8 mm 2 mps 748 mmHg 85%
11:00 +20°C° 0.8 mm 2 mps 748 mmHg 83%
12:00 +20°C° 0.8 mm 2 mps 748 mmHg 82%
13:00 +21°C° 0 mm 2 mps 748 mmHg 73%
14:00 +24°C° 0 mm 2 mps 748 mmHg 65%
15:00 +25°C° 0 mm 2 mps 748 mmHg 57%
16:00 +25°C° 0 mm 2 mps 748 mmHg 57%
17:00 +25°C° 0 mm 1 mps 748 mmHg 57%
18:00 +25°C° 0 mm 1 mps 748 mmHg 57%
19:00 +23°C° 0 mm 1 mps 748 mmHg 61%
20:00 +21°C° 0 mm 1 mps 748 mmHg 65%
21:00 +19°C° 0 mm 1 mps 748 mmHg 69%
22:00 +19°C° 0 mm 1 mps 749 mmHg 69%
23:00 +17°C° 0 mm 0 mps 749 mmHg 69%
Show more